Romeoville, IL

4:50 AM CDT on June 29, 2017 (GMT -0500)
Lewis University

Weather History for KLOT - March, 2013

Change the Weather History Date:

Friday, March 29, 2013

  Actual Average Record
Temperature  
Mean Temperature 43 °F 44 °F  
Max Temperature 56 °F 54 °F 80 °F (1998)
Min Temperature 30 °F 33 °F 23 °F (2008)
Degree Days  
Heating Degree Days 22 21  
Month to date heating degree days 968 775  
Since 1 July heating degree days 5422 5503  
Cooling Degree Days 0 0  
Month to date cooling degree days 0 0  
Year to date cooling degree days 0 0  
Moisture  
Dew Point 22 °F    
Average Humidity 49    
Maximum Humidity 77    
Minimum Humidity 30    
Precipitation  
Precipitation 0.00 in 0.10 in 0.62 in (2017)
Month to date precipitation 2.26 2.58  
Year to date precipitation 8.08 6.29  
Snow  
Snow 0.00 in 0.10 in 1.50 in (2009)
Month to date snowfall 10.2 4.3  
Since 1 July snowfall 23.2 31.7  
Snow Depth 0.00 in    
Sea Level Pressure  
Sea Level Pressure 30.27 in    
Wind  
Wind Speed 3 mph (NNE)    
Max Wind Speed 12 mph    
Max Gust Speed 17 mph    
Visibility 10 miles    
Events      
T = Trace of Precipitation, MM = Missing Value Source: NWS Daily Summary

Daily Weather History Graph

Daily Weather History Graph

Search for Another Location

Airport or City:

Trip Planner

Search our weather history database for the weather conditions in past years. The results will help you decide how hot, cold, wet, or windy it might be!

Date:

Astronomy

Mar. 29, 2013 Rise Set
Actual Time 6:39 AM CDT 7:14 PM CDT
Civil Twilight 6:12 AM CDT 7:42 PM CDT
Nautical Twilight 5:39 AM CDT 8:15 PM CDT
Astronomical Twilight 5:05 AM CDT 8:49 PM CDT
Moon 10:17 PM CDT 7:46 AM CDT
Length of Visible Light 13h 30m
Length of Day
12h 34m
Waning Gibbous, 93% of the Moon is Illuminated
Mar 29
Waning Gibbous
Apr 2
Last Quarter
Apr 10
New
Apr 18
First Quarter
Apr 25
Full

Hourly Weather History & Observations

Time (CDT) Temp. Windchill Dew Point Humidity Pressure Visibility Wind Dir Wind Speed Gust Speed Precip Events Conditions
12:15 AM 33.8 °F 30.8 °F 22.8 °F 64% 30.31 in 10.0 mi NE 3.5 mph - N/A   Overcast
12:35 AM 34.3 °F - 23.4 °F 64% 30.31 in 10.0 mi Calm Calm - N/A   Overcast
12:55 AM 32.5 °F 27.1 °F 23.4 °F 69% 30.30 in 10.0 mi ENE 5.8 mph - N/A   Mostly Cloudy
1:15 AM 34.7 °F - 23.7 °F 64% 30.31 in 10.0 mi Calm Calm - N/A   Overcast
1:35 AM 34.7 °F - 23.5 °F 64% 30.31 in 10.0 mi Calm Calm - N/A   Overcast
1:55 AM 34.3 °F - 25.0 °F 69% 30.31 in 10.0 mi Calm Calm - N/A   Overcast
2:15 AM 35.8 °F 33.0 °F 21.2 °F 55% 30.30 in 10.0 mi ESE 3.5 mph - N/A   Overcast
2:35 AM 32.9 °F 29.8 °F 23.9 °F 69% 30.30 in 10.0 mi ENE 3.5 mph - N/A   Mostly Cloudy
2:55 AM 32.2 °F 28.9 °F 24.6 °F 74% 30.29 in 10.0 mi East 3.5 mph - N/A   Overcast
3:15 AM 33.3 °F - 23.4 °F 67% 30.29 in 10.0 mi Calm Calm - N/A   Overcast
3:35 AM 32.7 °F 29.6 °F 23.0 °F 67% 30.29 in 10.0 mi NE 3.5 mph - N/A   Scattered Clouds
3:55 AM 32.0 °F 28.7 °F 22.8 °F 69% 30.29 in 10.0 mi ENE 3.5 mph - N/A   Clear
4:15 AM 31.8 °F 28.5 °F 23.9 °F 73% 30.29 in 10.0 mi NE 3.5 mph - N/A   Mostly Cloudy
4:35 AM 32.2 °F - 23.9 °F 72% 30.29 in 10.0 mi Calm Calm - N/A   Overcast
4:55 AM 32.0 °F - 23.4 °F 70% 30.29 in 10.0 mi Calm Calm - N/A   Overcast
5:15 AM 32.5 °F - 23.0 °F 68% 30.29 in 10.0 mi Calm Calm - N/A   Overcast
5:35 AM 31.6 °F - 23.9 °F 73% 30.29 in 10.0 mi Calm Calm - N/A   Mostly Cloudy
5:55 AM 32.4 °F - 23.0 °F 68% 30.29 in 10.0 mi Calm Calm - N/A   Clear
6:15 AM 32.9 °F - 22.5 °F 65% 30.29 in 10.0 mi Calm Calm - N/A   Clear
6:35 AM 31.6 °F - 23.0 °F 70% 30.29 in 10.0 mi Calm Calm - N/A   Clear
6:55 AM 32.4 °F - 23.5 °F 70% 30.30 in 10.0 mi Calm Calm - N/A   Clear
7:15 AM 32.0 °F - 23.5 °F 71% 30.31 in 10.0 mi Calm Calm - N/A   Clear
7:35 AM 33.1 °F - 24.8 °F 72% 30.31 in 10.0 mi Calm Calm - N/A   Clear
7:55 AM 34.3 °F - 27.7 °F 77% 30.31 in 10.0 mi Calm Calm - N/A   Clear
8:15 AM 36.5 °F - 26.2 °F 66% 30.31 in 10.0 mi Calm Calm - N/A   Mostly Cloudy
8:35 AM 38.7 °F - 28.4 °F 67% 30.31 in 10.0 mi Calm Calm - N/A   Scattered Clouds
8:55 AM 42.6 °F - 23.9 °F 48% 30.32 in 10.0 mi Calm Calm - N/A   Mostly Cloudy
9:15 AM 43.2 °F - 23.9 °F 47% 30.32 in 10.0 mi Calm Calm - N/A   Overcast
9:35 AM 44.4 °F - 21.0 °F 39% 30.32 in 10.0 mi Calm Calm - N/A   Overcast
9:55 AM 45.0 °F - 19.2 °F 36% 30.32 in 10.0 mi Calm Calm - N/A   Overcast
10:15 AM 45.7 °F - 20.1 °F 36% 30.32 in 10.0 mi Calm Calm - N/A   Overcast
10:35 AM 46.6 °F - 18.3 °F 32% 30.32 in 10.0 mi Calm Calm - N/A   Overcast
10:55 AM 47.3 °F - 20.1 °F 34% 30.32 in 10.0 mi Calm Calm - N/A   Overcast
11:15 AM 47.7 °F - 22.5 °F 37% 30.32 in 10.0 mi Calm Calm - N/A   Overcast
11:35 AM 48.2 °F - 21.6 °F 35% 30.31 in 10.0 mi Calm Calm - N/A   Scattered Clouds
11:55 AM 49.3 °F - 23.0 °F 36% 30.30 in 10.0 mi NW 5.8 mph - N/A   Clear
12:15 PM 49.1 °F - 20.7 °F 33% 30.30 in 10.0 mi Calm Calm - N/A   Clear
12:35 PM 50.0 °F - 20.5 °F 31% 30.29 in 10.0 mi SW 3.5 mph - N/A   Clear
12:55 PM 50.7 °F - 21.4 °F 32% 30.29 in 10.0 mi West 4.6 mph - N/A   Clear
1:15 PM 52.0 °F - 22.3 °F 31% 30.28 in 10.0 mi West 5.8 mph - N/A   Clear
1:35 PM 51.8 °F - 21.2 °F 30% 30.27 in 10.0 mi NW 3.5 mph - N/A   Clear
1:55 PM 52.7 °F - 22.3 °F 31% 30.26 in 10.0 mi West 6.9 mph - N/A   Clear
2:15 PM 52.3 °F - 21.6 °F 30% 30.26 in 10.0 mi SW 3.5 mph - N/A   Clear
2:35 PM 53.6 °F - 23.0 °F 30% 30.25 in 10.0 mi NNW 10.4 mph 17.3 mph N/A   Clear
2:55 PM 53.4 °F - 22.6 °F 30% 30.24 in 10.0 mi West 5.8 mph - N/A   Clear
3:15 PM 53.2 °F - 23.5 °F 32% 30.24 in 10.0 mi WNW 11.5 mph 16.1 mph N/A   Clear
3:35 PM 53.2 °F - 22.6 °F 30% 30.23 in 10.0 mi Calm Calm - N/A   Clear
3:55 PM 54.3 °F - 25.5 °F 33% 30.23 in 10.0 mi NW 6.9 mph - N/A   Clear
4:15 PM 53.8 °F - 23.5 °F 31% 30.22 in 10.0 mi West 4.6 mph - N/A   Scattered Clouds
4:35 PM 54.1 °F - 24.4 °F 32% 30.22 in 10.0 mi WNW 9.2 mph - N/A   Scattered Clouds
4:55 PM 53.8 °F - 24.4 °F 32% 30.22 in 10.0 mi West 9.2 mph - N/A   Clear
5:15 PM 53.6 °F - 24.3 °F 32% 30.22 in 10.0 mi West 9.2 mph - N/A   Clear
5:35 PM 53.6 °F - 23.0 °F 30% 30.21 in 10.0 mi NW 8.1 mph 17.3 mph N/A   Clear
5:55 PM 52.3 °F - 24.8 °F 34% 30.21 in 10.0 mi NW 6.9 mph - N/A   Clear
6:15 PM 51.8 °F - 23.7 °F 33% 30.22 in 10.0 mi NW 6.9 mph - N/A   Clear
6:35 PM 50.4 °F - 26.6 °F 40% 30.22 in 10.0 mi NW 4.6 mph - N/A   Clear
6:55 PM 48.4 °F - 26.1 °F 42% 30.22 in 10.0 mi NNW 5.8 mph - N/A   Clear
7:15 PM 46.6 °F - 20.8 °F 36% 30.22 in 10.0 mi East 10.4 mph - N/A   Clear
7:35 PM 43.7 °F 38.1 °F 20.7 °F 40% 30.23 in 10.0 mi ENE 10.4 mph - N/A   Clear
7:55 PM 43.7 °F 38.6 °F 19.9 °F 39% 30.23 in 10.0 mi East 9.2 mph - N/A   Clear
8:15 PM 41.2 °F 35.5 °F 20.3 °F 43% 30.24 in 10.0 mi East 9.2 mph - N/A   Clear
8:35 PM 41.0 °F 35.2 °F 19.4 °F 42% 30.24 in 10.0 mi East 9.2 mph - N/A   Clear
8:55 PM 40.3 °F 34.9 °F 19.4 °F 43% 30.24 in 10.0 mi East 8.1 mph - N/A   Clear
9:15 PM 40.1 °F 35.3 °F 19.4 °F 43% 30.25 in 10.0 mi East 6.9 mph - N/A   Clear
9:35 PM 39.6 °F 34.7 °F 19.2 °F 44% 30.25 in 10.0 mi East 6.9 mph - N/A   Clear
9:55 PM 38.3 °F 33.9 °F 19.6 °F 47% 30.25 in 10.0 mi East 5.8 mph - N/A   Clear
10:15 PM 38.3 °F 33.2 °F 19.4 °F 47% 30.25 in 10.0 mi East 6.9 mph - N/A   Clear
10:35 PM 37.2 °F 31.9 °F 19.2 °F 48% 30.25 in 10.0 mi East 6.9 mph - N/A   Clear
10:55 PM 36.7 °F 32.0 °F 19.8 °F 50% 30.25 in 10.0 mi East 5.8 mph - N/A   Clear
11:15 PM 36.5 °F 31.8 °F 19.6 °F 50% 30.24 in 10.0 mi East 5.8 mph - N/A   Clear
11:35 PM 33.6 °F 30.6 °F 19.9 °F 57% 30.24 in 10.0 mi ENE 3.5 mph - N/A   Clear
11:55 PM 32.9 °F 28.5 °F 19.8 °F 59% 30.24 in 10.0 mi NE 4.6 mph - N/A   Clear